Location: Bremen
(53.0793°N, 8.8017°E)
Time: 17:12:19
(UTC+01:00)

BlueWalker 3 - Visible Passes

Search period start: 07 December 2025 00:00
Search period end: 17 December 2025 00:00
Orbit: 455 x 462 km, 53.2° (Epoch: 06 December)

Date Brightness Start Highest point End Pass type
(mag) Time Alt. Az. Time Alt. Az. Time Alt. Az.
07 Dec 3.6 18:01:36 10° W 18:04:48 29° SSW 18:08:00 10° SSE visible
08 Dec 3.4 17:26:43 10° W 17:30:03 34° SSW 17:33:22 10° SE visible
09 Dec 3.2 16:51:50 10° W 16:55:16 40° SSW 16:58:41 10° SE visible
09 Dec 5.1 18:31:16 10° WSW 18:32:02 11° SW 18:32:48 10° SW visible
10 Dec 4.9 17:55:36 10° WSW 17:57:19 13° SW 17:59:02 10° SSW visible
11 Dec 4.9 17:20:20 10° W 17:22:34 16° SW 17:24:48 10° S visible
12 Dec 4.8 16:45:12 10° W 16:47:48 19° SW 16:50:23 10° S visible
